Regional Weather Roundup
Issued by NWS State College, PA

Home | Current Version | Previous Version | Graphics & Text | Print | Product List | Glossary Off
Versions: 1 2 3 4 5 6 7 8 9 10 11 12 13 14 15 16 17 18 19 20 21 22 23 24 25 26 27 28 29 30 31 32 33 34 35 36 37 38 39 40 41 42 43 44 45 46 47 48 49 50

789
ASUS41 KCTP 240810
RWRCTP

REGIONAL WEATHER ROUNDUP
NATIONAL WEATHER SERVICE STATE COLLEGE PA
400 AM EDT TUE MAY 24 2016

Note: "fair" indicates few or no clouds below 12,000 feet with no
significant weather and/or obstructions to visibility.

* = STATION THAT DOES NOT REPORT PRECIPITATION /E.G. RAIN...SNOW...ETC/
    THUNDER OR FOG.

PAZ002>004-007>009-013>016-020>023-029>032-240900-
WESTERN PENNSYLVANIA

CITY           SKY/WX    TMP DP  RH WIND       PRES   REMARKS
ERIE           CLEAR     51  44  77 CALM      30.01S
MEADVILLE      CLEAR     53  42  66 CALM      30.02S
FRANKLIN*      CLEAR     48  43  81 NE3       30.04S
NEW CASTLE     FAIR      47  46  97 CALM      30.03S
BEAVER COUNTY  NOT AVBL
BUTLER*        CLEAR    N/A N/A N/A CALM      30.04R
PITTSBURGH INT CLEAR     54  47  77 CALM      30.01S
PITTSBURGH     CLEAR     54  49  83 S5        30.01S
INDIANA*       MOCLDY    50  50 100 CALM      30.06R
LATROBE        PTCLDY    52  52 100 CALM      30.03S
WASHINGTON CO*   N/A     46  45  93 CALM      30.03S VSB 3/4
$$

PAZ004>006-010>012-017>019-024>028-033>037-041-042-045-046-049>053-240900-
CENTRAL PENNSYLVANIA

CITY           SKY/WX    TMP DP  RH WIND       PRES   REMARKS
BRADFORD       CLEAR     44  40  85 CALM      30.02S
DUBOIS         CLEAR     50  42  74 NW3       30.01R
CLEARFIELD     PTCLDY    49  47  93 S5        30.00S FOG
JOHNSTOWN      PTCLDY    51  43  74 W6        30.01S
ALTOONA        CLEAR     52  48  86 CALM      29.99S
STATE COLLEGE  CLEAR     53  49  89 CALM      29.97S
WILLIAMSPORT   MOCLDY    54  49  83 W9        29.93R
SELINSGROVE    MOCLDY    51  49  92 CALM      29.93S
FT INDIANTOWN  PTCLDY    60  50  68 NW9       29.90S
CAPITAL CITY   CLEAR     57  52  83 NW5       29.91S
HARRISBURG     PTCLDY    57  52  83 NW10      29.90S
YORK           CLEAR     57  51  80 W7        29.91F
$$

PAZ038>040-043-044-047-048-054-055-060>062-067>071-240900-
EASTERN PENNSYLVANIA

CITY           SKY/WX    TMP DP  RH WIND       PRES   REMARKS
SCRANTON       CLOUDY    57  46  66 CALM      29.91R
MOUNT POCONO   MOCLDY    52  42  69 N9        29.90S
ALLENTOWN      CLOUDY    57  53  86 SW5       29.87F
QUAKERTOWN*    CLOUDY    57  55  94 CALM      29.89S
READING        PTCLDY    56  53  90 CALM      29.88S
LANCASTER      MOCLDY    56  53  90 W8        29.89F
COATESVILLE      N/A    N/A N/A N/A MISG        N/A
POTTSTOWN      CLOUDY    56  55  97 W3        29.89F
BLUE BELL      CLOUDY    54  54 100 CALM      29.87S
DOYLESTOWN     CLOUDY    54  54 100 CALM      29.88R
WILLOW GROVE   NOT AVBL
NORTH PHILA    CLOUDY    57  55  93 NE6       29.90R
PHILADELPHIA   CLOUDY    58  54  86 SW9       29.88F
$$




USA.gov is the U.S. government's official web portal to all federal, state and local government web resources and services.